EA3AGY-13 Weather Reports


Display with metric or nautical units.
time (UTC)temp
F
wind
direction
speed
MPH
gust
MPH
rain 1hr
in
rain 24hr
in
rain mn
in
humidity
%
barometer
mb
20260504150755 50 90 1.0 4.0 0.00 0.00 0.00 27 1011.0
20260504140741 58 0 0.0 1.0 0.00 0.00 0.00 22 1011.0
20260504110654 58 135 2.0 7.0 0.00 0.00 0.00 23 1011.6
20260504081614 51 45 0.0 1.0 0.00 0.00 0.00 39 1012.3
20260504044525 47 90 0.0 0.0 0.00 0.00 0.00 41 1011.9
20260504042519 46 90 1.0 3.0 0.00 0.00 0.00 44 1012.0
20260504041518 45 45 0.0 2.0 0.00 0.00 0.00 43 1012.0
20260504035512 45 45 0.0 1.0 0.00 0.00 0.00 40 1012.2
20260504022451 49 90 1.0 1.0 0.00 0.00 0.00 37 1012.3
20260504015444 49 45 0.0 1.0 0.00 0.00 0.00 37 1012.5
20260504013439 49 90 0.0 0.0 0.00 0.00 0.00 35 1012.7
20260504012438 50 45 0.0 0.0 0.00 0.00 0.00 36 1012.8
20260504003425 49 90 0.0 0.0 0.00 0.00 0.00 36 1013.0
20260504002423 51 45 0.0 0.0 0.00 0.00 0.00 35 1012.8
20260504001420 51 45 0.0 0.0 0.00 0.00 0.00 35 1013.0
20260504000419 50 45 0.0 0.0 0.00 0.00 0.00 35 1013.0
20260503230403 51 45 0.0 0.0 0.00 0.00 0.00 34 1013.3
20260503224359 51 0 0.0 0.0 0.00 0.00 0.00 34 1013.3
20260503220349 52 0 0.0 0.0 0.00 0.00 0.00 33 1013.6
20260503214345 51 315 0.0 0.0 0.00 0.00 0.00 34 1013.5
20260503213342 51 0 0.0 0.0 0.00 0.00 0.00 34 1013.5
20260503211339 52 45 0.0 0.0 0.00 0.00 0.00 34 1013.6
20260503204330 52 45 0.0 0.0 0.00 0.00 0.00 33 1013.6
20260503203328 50 90 0.0 0.0 0.00 0.00 0.00 33 1013.6
20260503201323 52 225 0.0 1.0 0.00 0.00 0.00 33 1013.5
20260503200321 52 0 0.0 0.0 0.00 0.00 0.00 33 1013.5
20260503195318 50 45 0.0 1.0 0.00 0.00 0.00 33 1013.3
20260503193314 52 0 0.0 1.0 0.00 0.00 0.00 32 1013.1
20260503185305 54 0 0.0 0.0 0.00 0.00 0.00 33 1012.8
20260503182257 54 225 1.0 2.0 0.00 0.00 0.00 32 1012.8
20260503181259 54 270 2.0 2.0 0.00 0.00 0.00 31 1012.7
20260503174248 54 135 0.0 3.0 0.00 0.00 0.00 31 1012.8
20260503173245 54 180 1.0 3.0 0.00 0.00 0.00 31 1012.8
20260503171241 54 270 0.0 4.0 0.00 0.00 0.00 31 1012.8
20260503170240 55 225 1.0 7.0 0.00 0.00 0.00 30 1012.9